Gainesville, FL

5:56 AM EDT on July 26, 2017 (GMT -0400)
Gainesville Regional

Weather History for KGNV - December, 2012

Change the Weather History Date:

Monday, December 24, 2012

  Actual Average Record
Temperature  
Mean Temperature 57 °F 55 °F  
Max Temperature 68 °F 67 °F 85 °F (1956)
Min Temperature 45 °F 43 °F 16 °F (1989)
Degree Days  
Heating Degree Days 8 11  
Month to date heating degree days 110 218  
Since 1 July heating degree days 303 379  
Cooling Degree Days 0 1  
Month to date cooling degree days 19 24  
Year to date cooling degree days 2981 2640  
Growing Degree Days 6 (Base 50)    
Moisture  
Dew Point 47 °F    
Average Humidity 72    
Maximum Humidity 92    
Minimum Humidity 52    
Precipitation  
Precipitation 0.00 in 0.08 in 3.80 in (1940)
Month to date precipitation 5.09 1.84  
Year to date precipitation 54.40 46.77  
Snow  
Snow 0.00 in 0.00 in 0.00 in ()
Month to date snowfall 0.0 0.0  
Since 1 July snowfall 0.0 0.0  
Snow Depth 0.00 in    
Sea Level Pressure  
Sea Level Pressure 30.06 in    
Wind  
Wind Speed 3 mph (SSW)    
Max Wind Speed 16 mph    
Max Gust Speed 22 mph    
Visibility 10 miles    
Events      
T = Trace of Precipitation, MM = Missing Value Source: NWS Daily Summary

Daily Weather History Graph

Daily Weather History Graph

Search for Another Location

Airport or City:

Trip Planner

Search our weather history database for the weather conditions in past years. The results will help you decide how hot, cold, wet, or windy it might be!

Date:

Astronomy

Dec. 24, 2012 Rise Set
Actual Time 7:21 AM EST 5:36 PM EST
Civil Twilight 6:55 AM EST 6:02 PM EST
Nautical Twilight 6:25 AM EST 6:32 PM EST
Astronomical Twilight 5:56 AM EST 7:01 PM EST
Moon 2:58 PM EST (12/24) 4:04 AM EST (12/24)
Length of Visible Light 11h 07m
Length of Day
10h 14m
Waxing Gibbous, 88% of the Moon is Illuminated
Dec 24
Waxing Gibbous
Dec 28
Full
Jan 4
Last Quarter
Jan 11
New
Jan 18
First Quarter

Hourly Weather History & Observations

Time (EST) Temp. Dew Point Humidity Pressure Visibility Wind Dir Wind Speed Gust Speed Precip Events Conditions
12:53 AM 46.0 °F 39.0 °F 76% 30.15 in 10.0 mi Calm Calm - N/A   Clear
1:53 AM 46.9 °F 41.0 °F 80% 30.14 in 10.0 mi Calm Calm - N/A   Clear
2:53 AM 46.9 °F 39.9 °F 77% 30.14 in 10.0 mi Calm Calm - N/A   Clear
3:53 AM 46.0 °F 41.0 °F 83% 30.12 in 10.0 mi Calm Calm - N/A   Clear
4:53 AM 46.0 °F 42.1 °F 86% 30.11 in 10.0 mi Calm Calm - N/A   Clear
5:53 AM 46.0 °F 42.1 °F 86% 30.12 in 10.0 mi Calm Calm - N/A   Clear
6:53 AM 45.0 °F 42.1 °F 90% 30.11 in 10.0 mi Calm Calm - N/A   Clear
7:53 AM 48.0 °F 42.1 °F 80% 30.11 in 10.0 mi Calm Calm - N/A   Clear
8:53 AM 51.1 °F 41.0 °F 68% 30.11 in 10.0 mi Calm Calm - N/A   Clear
9:53 AM 55.0 °F 44.1 °F 67% 30.10 in 10.0 mi SSE 3.5 mph - N/A   Clear
10:53 AM 64.0 °F 46.0 °F 52% 30.09 in 10.0 mi South 9.2 mph - N/A   Clear
11:53 AM 66.9 °F 48.0 °F 51% 30.08 in 10.0 mi SSW 6.9 mph 17.3 mph N/A   Clear
12:53 PM 68.0 °F 50.0 °F 52% 30.02 in 10.0 mi SSW 9.2 mph 17.3 mph N/A   Clear
1:53 PM 68.0 °F 51.1 °F 55% 30.00 in 10.0 mi SW 9.2 mph - N/A   Partly Cloudy
2:53 PM 68.0 °F 52.0 °F 56% 30.00 in 10.0 mi SW 11.5 mph - N/A   Partly Cloudy
3:53 PM 66.9 °F 52.0 °F 59% 29.99 in 10.0 mi SSW 10.4 mph 19.6 mph N/A   Clear
4:53 PM 64.9 °F 52.0 °F 63% 30.00 in 10.0 mi SW 6.9 mph - N/A   Partly Cloudy
5:53 PM 63.0 °F 52.0 °F 67% 30.00 in 10.0 mi South 4.6 mph - N/A   Mostly Cloudy
6:53 PM 61.0 °F 52.0 °F 72% 30.00 in 10.0 mi South 3.5 mph - N/A   Scattered Clouds
7:03 PM 60.8 °F 51.8 °F 72% 30.00 in 10.0 mi South 3.5 mph - N/A   Mostly Cloudy
7:20 PM 60.8 °F 51.8 °F 72% 30.00 in 10.0 mi Calm Calm - N/A   Scattered Clouds
7:53 PM 60.1 °F 51.1 °F 72% 30.00 in 10.0 mi SSE 3.5 mph - N/A   Scattered Clouds
8:53 PM 57.9 °F 48.9 °F 72% 30.01 in 10.0 mi South 3.5 mph - N/A   Scattered Clouds
9:53 PM 57.0 °F 48.9 °F 74% 30.01 in 10.0 mi Calm Calm - N/A   Mostly Cloudy
10:53 PM 54.0 °F 48.9 °F 83% 30.02 in 10.0 mi Calm Calm - N/A   Partly Cloudy
11:53 PM 52.0 °F 48.0 °F 86% 30.01 in 10.0 mi Calm Calm - N/A   Clear